Find Starlink 30530

NORAD ID: 58005 Int'l Des: 2023-153 Owner: SPXS Country: US Constellation: starlink operational
LEOCIRCULAR

Live Position

Loading 3D Globe...

About Starlink 30530

Description loading...

Upcoming Passes

Passes for default location (London). Set your location on the main map for personalized predictions.

Altitude History

Loading altitude history...

Two-Line Element Set

1 58005U 23153Q 26123.45401235 .00001352 00000-0 58634-4 0 9991
2 58005 43.0041 117.6124 0001367 269.2501 90.8194 15.27578560143270
Epoch: May 3, 2026 • Age: 14 hours

Current Status

Altitude 486.6 km
Velocity 7.63 km/s
Sub-Earth Point 40.86°N, 60.53°W
Launch Date Oct 5, 2023
Age 2.5 years
Type internet

Technical Details

Classification Payload
Mass 730.00 kg
Dry Mass 700.00 kg
Total Mass 730.00 kg
Length 0.30 m
Diameter 4.10 m
Span 29.00 m
Shape Box + pan
Manufacturer SPXS
Bus Type Starlink V2M
Phase Status In Orbit
Owner/State SPXS/US

Most Searched